1999 EE5  

Epoch 1999 Mar. 23.0 TT = JDT 2451260.5                 Nakano

M 353.52710              (2000.0)            P               Q

n   0.45714558     Peri.  192.82117     -0.98683021     +0.15680685

a   1.6689104      Node   355.57770     -0.05953313     -0.58038795

e   0.2816588      Incl.   31.00674     -0.15040592     -0.79910039

P   2.16           H   18.0           G   0.15           U   *

Residuals in seconds of arc 

990315 704  0.9+  0.8+    990317 761  0.2-  1.3+    990320 108  0.1+  0.4-  

990315 704  0.5+  0.2+    990317 761  0.8+  0.2+    990320 108  1.2+  0.5+  

990315 704  1.4+  0.2+    990317 761  0.9+  0.3+    990321 860 (1.1-  2.6-) 

990315 704  1.3+  0.5+    990317 422  0.4-  0.9-    990321 860 (1.9-  2.7-) 

990315 704  0.0   1.7+    990317 422  0.5-  0.9-    990321 860 (3.1-  3.9-) 

990315 557  0.2-  0.9-    990317 422  0.8-  1.0-    990321 739 (2.4+  1.3+) 

990315 557  0.4+  0.2-    990317 900  0.3-  0.9-    990321 739 (5.0+  4.4-) 

990315 557  0.4+  0.1-    990317 402  0.2-  0.8-    990321 739  0.6+  1.1-  

990315 587  0.2+  0.8-    990317 402  0.1-  0.9-    990321 739 (4.4+  2.7-) 

990315 587  0.2+  0.8-    990317 402  0.1-  1.0-    990321 726  0.7+  0.4-  

990315 587  0.1+  0.4-    990317 402  0.1-  0.8-    990321 726  0.1+  0.3+  

990315 611  0.3-  0.1-    990317 900  0.3-  0.9-    990321 726  0.5+  0.0   

990315 611  0.1-  0.2-    990317 557  0.5-  0.6-    990321 726  1.0-  0.2-  

990315 611  0.3-  0.2-    990317 557  0.3-  0.8-    990321 726  1.1-  0.4+  

990315 611  0.2-  0.1+    990317 557  0.4-  0.7-    990321 726  0.7+  0.2+  

990316 744  0.5+  0.3+    990317 636  0.8-  0.2-    990321 726  0.3+  0.0   

990316 744  0.5+  0.4+    990317 636  0.4-  0.3+    990321 726  0.7+  0.5-  

990316 744  0.2+  0.7+    990318 860  0.0   0.3-    990321 726  0.4+  0.4+  

990316 625  1.3-  0.6+    990318 860  1.0-  1.8-    990322 360  0.5-  0.6+  

990316 625  1.0-  1.1+    990318 860 (2.0-  2.9-)   990322 360  0.4-  0.5+  

990316 625  1.1-  0.7+    990318 587  0.2+  0.5-    990322 360  0.8-  0.6+  

990316 625  1.1-  1.3+    990318 587  0.2+  0.8-    990324 118  0.4+  0.0   

990316 422  0.5+  0.5-    990318 046  0.1+  0.3+    990324 118  0.2+  0.2-  

990316 422  0.3+  0.2-    990318 046  0.3+  0.3+    990325 118  0.6+  0.0   

990316 422  0.5+  0.4-    990318 046  0.3+  0.6+    990325 118  0.9+  0.3+  

990316 422  0.3+  0.4-    990318 046  0.2-  0.4+    990326 620  1.9-  0.5-  

990316 402  0.2+  0.8-    990318 151  1.6+  1.2+    990326 620  0.9-  1.3-  

990316 402  0.4+  0.8-    990318 151  0.4-  1.8-    990326 620  0.0   2.0-  

990316 402  0.3+  0.5-    990318 151 (2.5+  1.7-)   990326 620 (0.4+  2.4-) 

990316 104  1.4-  0.6-    990318 151  1.4+  1.1+    990327 402  0.7-  0.2-  

990316 104  0.7-  0.2-    990318 151  1.3-  0.8-    990327 402  1.0-  1.6-  

990316 104  0.2-  0.4-    990319 704  1.1+  0.4+    990327 402  1.5-  0.4-  

990316 104  0.1-  1.0+    990319 704  0.7+  0.7+    990331 402  0.7+  0.2+  

990316 104  0.7-  0.4-    990319 704  0.8+  0.3+    990331 402  0.1-  0.3-  

990316 151  2.0-  0.8-    990319 704  0.8+  1.1+    990331 402  0.1-  0.1+  

990316 151  1.0-  0.3+    990319 704  0.5+  0.3-    990401 428  0.5+  0.3-  

990316 151  0.5-  1.0+    990319 046  0.0   0.2+    990401 428  1.1+  0.6+  

990316 151  0.2-  0.1-    990319 046  0.2+  0.3+    990401 046  0.8+  0.1+  

990316 151  0.5-  0.3-    990319 108  1.1-  1.1+    990401 046  0.3+  0.3+  

990316 133 (0.2+  2.5+)   990319 108  1.0+  0.5+    990401 046  1.8+  1.0+  

990316 620  1.1-  0.0     990319 108 (0.4-  3.0+)   990404 118  0.4-  1.1+  

990316 620  1.1-  0.0     990319 620  0.1-  0.7+    990404 118  0.9-  0.5+  

990316 620  1.1-  0.4-    990319 620  0.5-  0.3-    990404 118  0.2-  0.2+  

990316 620  0.7-  0.3-    990319 620  0.1-  0.3-    990405 360  0.1-  0.2-  

990316 133  1.4+  1.1+    990319 620  0.1-  0.6+    990405 360  0.2-  0.3-  

990316 133 (1.2+  2.1+)   990320 704  0.7+  0.9+    990405 360  0.3-  0.0   

990317 758  1.6+  0.2-    990320 704  0.5-  1.8+    990406 422  0.2+  0.5-  

990317 758  1.1+  0.1+    990320 704  0.1-  1.1+    990406 422  0.2-  0.3-  

990317 758  0.8+  0.0     990320 704  1.2+  1.4+    990408 360  0.2-  0.1+  

990317 758  0.9+  0.4+    990320 704  0.4-  1.5+    990408 360  0.3+  0.1-  

990317 761  0.4+  0.4+    990320 108  0.1-  0.6-    990408 360  0.0   0.1-  

     





1999 EE5  

Epoch 1999 Mar. 23.0 TT = JDT 2451260.5                 Nakano

M 353.52854              (2000.0)            P               Q

n   0.45709659     Peri.  192.81976     -0.98683434     +0.15677963

a   1.6690297      Node   355.57741     -0.05950796     -0.58036262

e   0.2817010      Incl.   31.00873     -0.15038881     -0.79912413

P   2.16           H   18.0           G   0.15           U   *

                        





1999 EE5  

Epoch 1999 Mar. 23.0 TT = JDT 2451260.5                 Nakano

M 353.53039              (2000.0)            P               Q

n   0.45686533     Peri.  192.82261     -0.98682772     +0.15681634

a   1.6695929      Node   355.57622     -0.05949424     -0.58025748

e   0.2819136      Incl.   31.01634     -0.15043762     -0.79919327

P   2.16           H   18.0           G   0.15           U   *

       



1999 EE5  

Epoch 1999 Mar. 23.0 TT = JDT 2451260.5                 Nakano

M 353.57243              (2000.0)            P               Q

n   0.45543185     Peri.  192.78098     -0.98695050     +0.15600291

a   1.6730944      Node   355.56698     -0.05873803     -0.57949256

e   0.2831392      Incl.   31.07643     -0.14992852     -0.79990716

P   2.16           H   18.0           G   0.15           U   *



    





1999 EE5  

Epoch 1999 Mar. 23.0 TT = JDT 2451260.5                 Nakano

M 353.51858              (2000.0)            P               Q

n   0.45773949     Peri.  192.82145     -0.98682621     +0.15684560

a   1.6674665      Node   355.58095     -0.05965401     -0.58067251

e   0.2811290      Incl.   30.98554     -0.15038428     -0.79888604

P   2.15           H   17.7           G   0.15           U   *

    



1999 EE5  

Epoch 1999 Mar. 23.0 TT = JDT 2451260.5                 Nakano

M 353.56603              (2000.0)            P               Q

n   0.45700750     Peri.  192.74886     -0.98703034     +0.15552918

a   1.6692466      Node   355.57462     -0.05868947     -0.58019422

e   0.2816592      Incl.   31.02671     -0.14942104     -0.79949068

P   2.16           H   17.7           G   0.15           U   *

    



NAKANO

         **** Don't distribute anyone except personal use only ****

                (C) Copyright 1999 OAA/ComputingSection

write mail from CFAD0::NAKANO on 1999-03-18 03:42:40(JST).



–ß‚è‚Ü‚·B